Time,TemperatureF,DewpointF,PressureIn,WindDirection,WindDirectionDegrees,WindSpeedMPH,WindSpeedGustMPH,Humidity,HourlyPrecipIn,Conditions,Clouds,dailyrainin,SoftwareType,DateUTC
2013-08-16 00:05:00,52.5,52.0,30.17,ENE,57,0.0,0.0,97,0.00,,,0.00,weatherlink.com 1.10,2013-08-16 04:05:00,
2013-08-16 00:20:00,52.1,51.0,30.17,ENE,57,0.0,0.0,97,0.00,,,0.00,weatherlink.com 1.10,2013-08-16 04:20:00,
2013-08-16 00:35:00,52.0,51.0,30.17,ENE,57,0.0,0.0,97,0.00,,,0.00,weatherlink.com 1.10,2013-08-16 04:35:00,
2013-08-16 00:50:00,51.8,51.0,30.17,ENE,57,0.0,0.0,97,0.00,,,0.00,weatherlink.com 1.10,2013-08-16 04:50:00,
2013-08-16 01:05:00,51.7,51.0,30.17,NE,56,0.0,0.0,97,0.00,,,0.00,weatherlink.com 1.10,2013-08-16 05:05:00,
2013-08-16 01:20:00,51.3,51.0,30.17,NE,56,0.0,0.0,97,0.00,,,0.00,weatherlink.com 1.10,2013-08-16 05:20:00,
2013-08-16 01:35:00,51.1,50.0,30.17,NE,56,0.0,0.0,97,0.00,,,0.00,weatherlink.com 1.10,2013-08-16 05:35:00,
2013-08-16 01:50:00,51.0,50.0,30.17,ENE,57,0.0,0.0,97,0.00,,,0.00,weatherlink.com 1.10,2013-08-16 05:50:00,
2013-08-16 02:05:00,50.8,50.0,30.17,ENE,57,0.0,0.0,98,0.00,,,0.00,weatherlink.com 1.10,2013-08-16 06:05:00,
2013-08-16 02:20:00,50.7,50.0,30.17,ENE,57,0.0,0.0,98,0.00,,,0.00,weatherlink.com 1.10,2013-08-16 06:20:00,
2013-08-16 02:35:00,50.5,50.0,30.17,ENE,57,0.0,0.0,98,0.00,,,0.00,weatherlink.com 1.10,2013-08-16 06:35:00,
2013-08-16 02:50:00,50.1,50.0,30.17,NE,56,0.0,0.0,98,0.00,,,0.00,weatherlink.com 1.10,2013-08-16 06:50:00,
2013-08-16 03:05:00,50.1,50.0,30.17,ENE,57,0.0,0.0,98,0.00,,,0.00,weatherlink.com 1.10,2013-08-16 07:05:00,
2013-08-16 03:20:00,49.9,49.0,30.17,NE,56,0.0,0.0,98,0.00,,,0.00,weatherlink.com 1.10,2013-08-16 07:20:00,
2013-08-16 03:35:00,49.9,49.0,30.17,ENE,57,0.0,0.0,98,0.00,,,0.00,weatherlink.com 1.10,2013-08-16 07:35:00,
2013-08-16 03:50:00,49.9,49.0,30.18,NE,56,0.0,0.0,98,0.00,,,0.00,weatherlink.com 1.10,2013-08-16 07:50:00,
2013-08-16 04:05:00,49.9,49.0,30.18,NE,56,0.0,0.0,98,0.00,,,0.00,weatherlink.com 1.10,2013-08-16 08:05:00,
2013-08-16 04:20:00,49.9,49.0,30.17,ENE,57,0.0,0.0,98,0.00,,,0.00,weatherlink.com 1.10,2013-08-16 08:20:00,
2013-08-16 04:50:00,49.9,49.0,30.17,ENE,57,0.0,0.0,98,0.00,,,0.00,weatherlink.com 1.10,2013-08-16 08:50:00,
2013-08-16 05:05:00,49.8,49.0,30.17,ENE,57,0.0,0.0,98,0.00,,,0.00,weatherlink.com 1.10,2013-08-16 09:05:00,
2013-08-16 05:20:00,49.7,49.0,30.17,ENE,57,0.0,0.0,98,0.00,,,0.00,weatherlink.com 1.10,2013-08-16 09:20:00,
2013-08-16 05:35:00,49.5,49.0,30.17,ENE,57,0.0,0.0,98,0.00,,,0.00,weatherlink.com 1.10,2013-08-16 09:35:00,
2013-08-16 05:51:00,49.4,49.0,30.17,ENE,57,0.0,0.0,98,0.00,,,0.00,weatherlink.com 1.10,2013-08-16 09:51:00,
2013-08-16 06:06:00,49.7,49.0,30.18,ENE,57,0.0,0.0,98,0.00,,,0.00,weatherlink.com 1.10,2013-08-16 10:06:00,
2013-08-16 06:21:00,50.1,50.0,30.18,ENE,57,0.0,0.0,99,0.00,,,0.00,weatherlink.com 1.10,2013-08-16 10:21:00,
2013-08-16 06:36:00,50.2,50.0,30.18,ENE,57,0.0,0.0,99,0.00,,,0.00,weatherlink.com 1.10,2013-08-16 10:36:00,
2013-08-16 06:51:00,50.6,50.0,30.19,ENE,57,0.0,0.0,99,0.00,,,0.00,weatherlink.com 1.10,2013-08-16 10:51:00,
2013-08-16 07:06:00,50.8,51.0,30.19,NE,56,0.0,0.0,99,0.01,,,0.01,weatherlink.com 1.10,2013-08-16 11:06:00,
2013-08-16 07:21:00,51.2,51.0,30.19,NE,56,0.0,0.0,99,0.01,,,0.01,weatherlink.com 1.10,2013-08-16 11:21:00,
2013-08-16 07:37:00,51.6,51.0,30.19,NE,56,0.0,0.0,99,0.01,,,0.01,weatherlink.com 1.10,2013-08-16 11:37:00,
2013-08-16 07:51:00,52.2,52.0,30.20,NE,56,0.0,0.0,99,0.01,,,0.01,weatherlink.com 1.10,2013-08-16 11:51:00,
2013-08-16 08:06:00,53.1,53.0,30.20,ENE,57,0.0,0.0,99,0.00,,,0.01,weatherlink.com 1.10,2013-08-16 12:06:00,
2013-08-16 08:21:00,54.3,54.0,30.20,ENE,57,0.0,0.0,99,0.00,,,0.01,weatherlink.com 1.10,2013-08-16 12:21:00,
2013-08-16 08:36:00,55.9,56.0,30.20,NE,56,0.0,0.0,99,0.00,,,0.01,weatherlink.com 1.10,2013-08-16 12:36:00,
2013-08-16 08:51:00,59.2,59.0,30.20,NE,56,0.0,0.0,99,0.00,,,0.01,weatherlink.com 1.10,2013-08-16 12:51:00,
2013-08-16 09:06:00,61.5,61.0,30.21,ENE,57,0.0,0.0,99,0.00,,,0.01,weatherlink.com 1.10,2013-08-16 13:06:00,
2013-08-16 09:21:00,64.0,61.0,30.21,ENE,58,0.0,0.0,91,0.00,,,0.01,weatherlink.com 1.10,2013-08-16 13:21:00,
2013-08-16 09:36:00,65.4,59.0,30.21,SW,214,0.0,1.0,81,0.00,,,0.01,weatherlink.com 1.10,2013-08-16 13:36:00,
2013-08-16 09:51:00,67.9,61.0,30.21,SSE,167,0.0,1.0,78,0.00,,,0.01,weatherlink.com 1.10,2013-08-16 13:51:00,
2013-08-16 10:06:00,70.1,61.0,30.21,SSE,164,0.0,2.0,72,0.00,,,0.01,weatherlink.com 1.10,2013-08-16 14:06:00,
2013-08-16 10:21:00,70.9,61.0,30.21,SSE,148,1.0,1.0,70,0.00,,,0.01,weatherlink.com 1.10,2013-08-16 14:21:00,
2013-08-16 10:36:00,71.6,55.0,30.21,WSW,239,3.0,3.0,56,0.00,,,0.01,weatherlink.com 1.10,2013-08-16 14:36:00,
2013-08-16 10:51:00,71.8,57.0,30.21,ESE,122,1.0,2.0,59,0.00,,,0.01,weatherlink.com 1.10,2013-08-16 14:51:00,
2013-08-16 11:06:00,72.4,54.0,30.21,South,188,2.0,3.0,53,0.00,,,0.01,weatherlink.com 1.10,2013-08-16 15:06:00,
2013-08-16 11:22:00,73.4,55.0,30.21,SSE,149,2.0,3.0,53,0.00,,,0.01,weatherlink.com 1.10,2013-08-16 15:22:00,
2013-08-16 11:37:00,73.6,57.0,30.21,WSW,246,1.0,2.0,56,0.00,,,0.01,weatherlink.com 1.10,2013-08-16 15:37:00,
2013-08-16 11:52:00,73.7,54.0,30.21,NW,323,1.0,4.0,51,0.00,,,0.01,weatherlink.com 1.10,2013-08-16 15:52:00,
2013-08-16 12:07:00,74.5,56.0,30.21,WSW,242,0.0,3.0,53,0.00,,,0.01,weatherlink.com 1.10,2013-08-16 16:07:00,
2013-08-16 12:22:00,74.7,54.0,30.21,ESE,110,4.0,4.0,48,0.00,,,0.01,weatherlink.com 1.10,2013-08-16 16:22:00,
2013-08-16 12:37:00,75.7,56.0,30.21,SE,139,1.0,4.0,50,0.00,,,0.01,weatherlink.com 1.10,2013-08-16 16:37:00,
2013-08-16 12:52:00,75.5,53.0,30.21,SSW,195,1.0,4.0,46,0.00,,,0.01,weatherlink.com 1.10,2013-08-16 16:52:00,
2013-08-16 13:07:00,75.5,57.0,30.21,SW,218,1.0,3.0,52,0.00,,,0.01,weatherlink.com 1.10,2013-08-16 17:07:00,
2013-08-16 13:22:00,75.2,53.0,30.21,SE,134,0.0,3.0,46,0.00,,,0.01,weatherlink.com 1.10,2013-08-16 17:22:00,
2013-08-16 13:37:00,75.6,55.0,30.21,SE,146,2.0,3.0,49,0.00,,,0.01,weatherlink.com 1.10,2013-08-16 17:37:00,
2013-08-16 13:52:00,75.1,57.0,30.21,WNW,284,0.0,1.0,54,0.00,,,0.01,weatherlink.com 1.10,2013-08-16 17:52:00,
2013-08-16 14:07:00,75.5,58.0,30.20,NNE,20,0.0,3.0,54,0.00,,,0.01,weatherlink.com 1.10,2013-08-16 18:07:00,
2013-08-16 14:22:00,74.9,55.0,30.20,SE,134,0.0,3.0,50,0.00,,,0.01,weatherlink.com 1.10,2013-08-16 18:22:00,
2013-08-16 14:37:00,75.2,57.0,30.20,NNW,330,0.0,1.0,54,0.00,,,0.01,weatherlink.com 1.10,2013-08-16 18:37:00,
2013-08-16 14:52:00,74.5,56.0,30.20,SW,231,0.0,1.0,52,0.00,,,0.01,weatherlink.com 1.10,2013-08-16 18:52:00,
2013-08-16 15:07:00,74.0,58.0,30.20,SW,231,0.0,0.0,57,0.00,,,0.01,weatherlink.com 1.10,2013-08-16 19:07:00,
2013-08-16 15:22:00,74.8,58.0,30.19,SW,231,0.0,0.0,56,0.00,,,0.01,weatherlink.com 1.10,2013-08-16 19:22:00,
2013-08-16 15:37:00,75.4,57.0,30.19,SW,232,0.0,1.0,53,0.00,,,0.01,weatherlink.com 1.10,2013-08-16 19:37:00,
2013-08-16 15:52:00,73.7,61.0,30.19,SW,232,0.0,0.0,64,0.00,,,0.01,weatherlink.com 1.10,2013-08-16 19:52:00,
2013-08-16 16:07:00,73.2,60.0,30.19,SW,232,0.0,0.0,64,0.00,,,0.01,weatherlink.com 1.10,2013-08-16 20:07:00,
2013-08-16 16:22:00,74.8,58.0,30.19,SW,232,0.0,0.0,57,0.00,,,0.01,weatherlink.com 1.10,2013-08-16 20:22:00,
2013-08-16 16:37:00,76.3,54.0,30.19,SSW,204,0.0,2.0,46,0.00,,,0.01,weatherlink.com 1.10,2013-08-16 20:37:00,
2013-08-16 16:52:00,78.0,54.0,30.19,SW,233,0.0,2.0,44,0.00,,,0.01,weatherlink.com 1.10,2013-08-16 20:52:00,
2013-08-16 17:07:00,76.4,57.0,30.19,SE,138,0.0,2.0,51,0.00,,,0.01,weatherlink.com 1.10,2013-08-16 21:07:00,
2013-08-16 17:22:00,73.4,60.0,30.19,SE,138,0.0,0.0,64,0.00,,,0.01,weatherlink.com 1.10,2013-08-16 21:22:00,
2013-08-16 17:37:00,72.7,63.0,30.19,SE,138,0.0,0.0,72,0.00,,,0.01,weatherlink.com 1.10,2013-08-16 21:37:00,
2013-08-16 17:52:00,73.8,57.0,30.19,West,263,0.0,2.0,55,0.00,,,0.01,weatherlink.com 1.10,2013-08-16 21:52:00,
2013-08-16 18:07:00,72.6,60.0,30.19,WNW,291,0.0,1.0,64,0.00,,,0.01,weatherlink.com 1.10,2013-08-16 22:07:00,
2013-08-16 18:22:00,70.6,60.0,30.19,WNW,291,0.0,0.0,69,0.00,,,0.01,weatherlink.com 1.10,2013-08-16 22:22:00,
2013-08-16 18:37:00,72.2,55.0,30.19,NE,54,0.0,1.0,56,0.00,,,0.01,weatherlink.com 1.10,2013-08-16 22:37:00,
2013-08-16 18:52:00,71.6,61.0,30.19,NE,54,0.0,0.0,69,0.00,,,0.01,weatherlink.com 1.10,2013-08-16 22:52:00,
2013-08-16 19:07:00,69.6,61.0,30.19,NE,54,0.0,0.0,73,0.00,,,0.01,weatherlink.com 1.10,2013-08-16 23:07:00,
2013-08-16 19:22:00,68.6,61.0,30.19,NE,54,0.0,0.0,77,0.00,,,0.01,weatherlink.com 1.10,2013-08-16 23:22:00,
2013-08-16 19:37:00,67.7,61.0,30.19,NE,53,0.0,0.0,80,0.00,,,0.01,weatherlink.com 1.10,2013-08-16 23:37:00,
2013-08-16 19:52:00,67.1,63.0,30.19,NE,54,0.0,0.0,86,0.00,,,0.01,weatherlink.com 1.10,2013-08-16 23:52:00,
2013-08-16 20:07:00,66.2,62.0,30.19,NE,54,0.0,0.0,87,0.00,,,0.01,weatherlink.com 1.10,2013-08-17 00:07:00,
2013-08-16 20:22:00,65.4,63.0,30.19,NE,53,0.0,0.0,90,0.00,,,0.01,weatherlink.com 1.10,2013-08-17 00:22:00,
2013-08-16 20:37:00,64.4,62.0,30.19,NE,53,0.0,0.0,92,0.00,,,0.01,weatherlink.com 1.10,2013-08-17 00:37:00,
2013-08-16 20:52:00,63.3,61.0,30.20,NE,53,0.0,0.0,92,0.00,,,0.01,weatherlink.com 1.10,2013-08-17 00:52:00,
2013-08-16 21:07:00,62.0,60.0,30.20,NE,53,0.0,0.0,92,0.00,,,0.01,weatherlink.com 1.10,2013-08-17 01:07:00,
2013-08-16 21:22:00,61.1,59.0,30.20,NE,53,0.0,0.0,93,0.00,,,0.01,weatherlink.com 1.10,2013-08-17 01:22:00,
2013-08-16 21:37:00,59.9,58.0,30.21,NE,54,0.0,0.0,93,0.00,,,0.01,weatherlink.com 1.10,2013-08-17 01:37:00,
2013-08-16 21:52:00,59.1,57.0,30.21,NE,53,0.0,0.0,94,0.00,,,0.01,weatherlink.com 1.10,2013-08-17 01:52:00,
2013-08-16 22:07:00,58.4,57.0,30.21,NE,53,0.0,0.0,94,0.00,,,0.01,weatherlink.com 1.10,2013-08-17 02:07:00,
2013-08-16 22:22:00,57.7,56.0,30.22,NE,54,0.0,0.0,94,0.00,,,0.01,weatherlink.com 1.10,2013-08-17 02:22:00,
2013-08-16 22:37:00,57.4,56.0,30.22,NE,53,0.0,0.0,95,0.00,,,0.01,weatherlink.com 1.10,2013-08-17 02:37:00,
2013-08-16 22:52:00,57.2,56.0,30.22,NE,53,0.0,0.0,96,0.00,,,0.01,weatherlink.com 1.10,2013-08-17 02:52:00,
2013-08-16 23:07:00,56.7,56.0,30.23,NE,53,0.0,0.0,96,0.00,,,0.01,weatherlink.com 1.10,2013-08-17 03:07:00,
2013-08-16 23:22:00,56.5,55.0,30.23,NE,53,0.0,0.0,96,0.00,,,0.01,weatherlink.com 1.10,2013-08-17 03:22:00,
2013-08-16 23:37:00,56.2,55.0,30.23,NE,53,0.0,0.0,96,0.00,,,0.01,weatherlink.com 1.10,2013-08-17 03:37:00,
2013-08-16 23:52:00,56.1,55.0,30.23,NE,54,0.0,0.0,97,0.00,,,0.01,weatherlink.com 1.10,2013-08-17 03:52:00,